Terminal Aerodrome Forecast
Issued by NWS Sterling, VA

Current Version | Previous Version | Graphics & Text | Print | Product List | Glossary On
Versions: 1 2 3 4 5 6 7 8 9 10 11 12 13 14 15 16 17 18 19 20 21 22
000
FTUS41 KLWX 262000 AAA
TAFDCA
TAF AMD
KDCA 262037Z 2621/2718 20004KT P6SM SKC
     FM270600 00000KT P6SM FEW090 FEW250=

USA.gov is the U.S. government's official web portal to all federal, state and local government web resources and services.